Location: Aspen Valley
(37.8316°N, 119.7752°W)
Time: 04:39:00
(UTC+00:00)

Daily predictions for brighter satellites

Satellite Brightness Start Highest point End
(mag) Time Altitude Azimuth Time Altitude Azimuth Time Altitude Azimuth
Cosmos 2279 Rocket 4.1 00:57:14 10° S 01:03:25 89° W 01:09:41 10° N
Cosmos 2098 Rocket 2.9 01:00:01 10° S 01:03:47 71° E 01:08:17 10° N
Cosmos 773 Rocket 4.1 01:01:13 10° N 01:06:22 56° ENE 01:11:30 10° SSE
Cosmos 1758 Rocket 3.5 01:02:50 10° N 01:07:07 65° E 01:11:20 10° SSE
Cosmos 2151 3.5 01:03:58 10° N 01:07:49 35° ENE 01:11:39 10° SE
Cosmos 2297 Rocket 2.4 01:06:28 10° N 01:11:56 47° ENE 01:17:22 10° SE
CENTAUR R/B 4.4 01:07:57 10° WNW 01:12:01 19° NNW 01:16:42 10° N
Cosmos 990 Rocket 4.5 01:08:27 10° S 01:13:10 39° ESE 01:17:54 10° NE
ARIANE 5 R/B 2.8 01:10:21 10° SE 01:15:06 44° ENE 01:19:56 10° N
IGS 5A 3.5 01:12:03 10° S 01:15:59 78° WSW 01:19:57 10° NNW
NOSS 2-3 (C) 4.1 01:15:06 10° S 01:18:11 27° ESE 01:21:05 10° ENE
Cosmos 1933 3.6 01:16:21 10° SSE 01:19:57 41° E 01:23:34 10° NNE
Cosmos 2180 Rocket 4.5 01:15:43 10° S 01:21:50 89° E 01:28:00 10° N
BlueWalker 3 1.8 01:18:28 10° NW 01:22:03 55° NE 01:25:36 10° ESE
SJ-12 4.1 01:19:25 10° SE 01:22:56 40° ENE 01:26:30 10° N
Cosmos 1484 Rocket 4.0 01:20:16 10° S 01:23:36 41° W 01:26:57 10° NNW
USA 238 DEB 4.1 01:18:46 10° S 01:24:05 35° ESE 01:29:47 10° NE
USA 238 4.1 01:18:54 10° S 01:24:12 35° ESE 01:29:52 10° NE
SPOT 1/Viking Rocket 4.4 01:22:05 10° ESE 01:26:22 27° ENE 01:30:40 10° NNE
Cosmos 2208 Rocket 4.0 01:22:54 10° NNW 01:28:05 89° WSW 01:33:17 10° SSE
Cosmos 405 Rocket 4.1 01:25:45 10° NNW 01:28:44 34° W 01:31:39 10° SSW
Cosmos 1626 Rocket 4.4 01:25:59 10° NNW 01:30:12 54° W 01:34:21 10° S
Meteor 1-25 Rocket 4.5 01:24:48 10° N 01:30:24 47° ENE 01:35:55 10° SSE
AQUARIUS 4.3 01:27:18 10° SE 01:31:30 46° ENE 01:35:43 10° N
Cosmos 2084 Rocket 4.3 01:28:07 10° NNW 01:31:47 28° NE 01:35:25 10° ESE
Cosmos 1980 Rocket 3.0 01:27:25 10° SSE 01:32:20 31° ESE 01:36:57 11° NE
Cosmos 1607 4.0 01:26:50 10° NNW 01:32:58 57° NE 01:39:10 10° SE
Cosmos 1606 Rocket 3.6 01:29:02 10° S 01:33:19 58° E 01:37:40 10° NNE
CZ-4C R/B 3.2 01:29:04 10° NNW 01:36:11 51° NE 01:44:43 10° SE
MOS 1 Rocket 3.5 01:31:41 10° SSE 01:36:18 52° ENE 01:41:14 10° N
Cosmos 1461 4.0 01:37:04 10° WSW 01:40:40 37° NW 01:44:20 10° NNE
BREEZE M DEB (TANK) 3.4 01:31:30 10° WNW 01:41:13 50° NNE 01:43:47 17° E
COSMO-SKYMED 1 3.4 01:40:54 14° NE 01:43:38 27° E 01:47:10 10° SSE
Cosmos 2266 Rocket 3.9 01:39:20 10° N 01:45:30 83° E 01:51:32 10° S
Cosmos 2263 Rocket 3.2 01:44:59 10° N 01:49:32 24° ENE 01:52:20 17° E
SJ-6F 4.3 01:46:31 10° SSE 01:50:25 64° ENE 01:54:23 10° N
NOSS 2-3 (E) 3.1 01:47:01 10° SW 01:50:47 83° WNW 01:53:30 17° NNE
NOSS 2-3 (D) 3.1 01:48:43 10° SSW 01:52:32 88° WNW 01:55:06 19° NNE
COSMOS 2455 4.4 01:53:07 10° SE 01:56:21 15° ESE 01:56:21 15° ESE
SAR-Lupe-4 4.2 01:54:46 10° S 01:58:15 58° WSW 02:01:47 10° NNW
Cosmos 1726 Rocket 3.6 01:53:41 10° S 01:58:19 82° E 02:02:57 10° N
Okean 1-7 Rocket 3.6 01:54:39 10° N 01:59:03 79° W 02:03:22 10° S
USA 290 3.3 01:56:40 10° NNW 01:59:49 46° WSW 02:02:56 10° S
BREEZE M DEB (TANK) 4.1 01:59:26 10° NW 02:00:31 12° NNW 02:00:58 12° N
Cosmos 2227 Rocket 2.3 01:57:39 10° NNW 02:03:11 53° ENE 02:08:40 10° SE
ATLAS CENTAUR R/B 2.4 02:01:11 10° NW 02:04:07 34° WSW 02:06:56 10° S
CZ-2D R/B 4.1 02:02:15 10° S 02:05:13 41° W 02:08:13 10° NNW
SKYMED 2 3.5 02:06:13 10° NNE 02:10:35 87° WNW 02:14:54 10° SSW
Meteor 2-2 Rocket 4.5 02:05:58 10° SSE 02:11:20 45° E 02:15:08 19° NNE
YAOGAN 1 2.7 02:07:38 10° SE 02:11:41 46° ENE 02:15:46 10° N
SL-19 R/B 4.4 02:08:16 10° SE 02:13:16 45° ENE 02:18:31 10° N
Cosmos 1697 Rocket 3.5 02:07:58 10° SW 02:13:22 48° WNW 02:18:48 10° N
Spot 4 Rocket 4.1 02:08:48 10° SSE 02:13:44 53° ENE 02:18:42 10° N
Cosmos 1898 Rocket 3.4 02:17:31 10° S 02:22:33 58° ESE 02:24:30 35° NE
IRAS Rocket 4.2 02:18:52 10° SSE 02:24:12 55° ENE 02:29:32 10° N
Meteor 2-20 4.5 02:18:18 10° S 02:24:27 82° W 02:30:39 10° N
Cosmos-2242 2.8 02:21:38 10° S 02:25:49 69° E 02:27:01 44° NNE
NOAA 15 4.5 02:22:06 10° SSE 02:27:22 77° ENE 02:32:41 10° N
Cosmos 1953 Rocket 3.5 02:27:27 10° N 02:31:54 85° W 02:36:21 10° S
Gbstr 26 Del rocket 4.4 02:28:51 10° W 02:32:03 23° NNW 02:32:49 21° N
Helios 1A Rocket 2.5 02:33:18 67° SSW 02:33:18 67° SSW 02:36:16 10° SSW
Meteor 2-10 4.0 02:30:31 10° N 02:35:54 71° E 02:41:27 10° SSE
Cosmos 372 Rocket 4.1 02:38:16 10° SSW 02:43:25 70° WNW 02:45:54 31° N
Cosmos 1937 Rocket 3.3 02:38:55 10° S 02:44:04 68° ESE 02:44:23 66° E
Cosmos 1867 3.9 02:39:58 10° NW 02:45:22 66° WSW 02:50:43 10° SSE
Cosmos 2237 4.5 02:40:24 10° S 02:45:21 47° SE 02:45:21 47° SE
SL-08 R/B 4.4 02:39:43 10° N 02:45:59 60° E 02:52:13 10° SSE
Meteor 1-26 Rocket 4.1 02:41:32 10° S 02:46:58 82° W 02:50:07 26° N
Aureole 1 Rocket 3.8 02:43:21 10° SW 02:47:18 52° WNW 02:49:31 29° N
Cosmos 2058 Rocket 4.0 02:51:33 10° SSW 02:55:51 47° W 02:57:56 27° NNW
SL-16 R/B 4.0 02:50:55 10° SSE 02:52:17 17° SSE 02:52:17 17° SSE
Cosmos 967 Rocket 4.3 02:52:11 10° SSW 02:58:29 77° ESE 02:59:20 66° ENE
NOAA 6 4.0 02:54:08 10° SSE 02:59:15 83° WSW 03:04:22 10° NNW
Hubble Space Telescope 3.2 03:02:25 10° SW 03:03:32 15° SSW 03:03:32 15° SSW
H-2A R/B 3.3 03:02:55 10° SW 03:05:47 31° S 03:05:47 31° S
Cosmos 2219 4.1 03:08:01 10° NNW 03:11:27 38° NNW 03:11:27 38° NNW
Cosmos 1980 Rocket 3.6 03:11:07 10° SW 03:16:11 34° WNW 03:18:44 23° NNW
CZ-4C R/B 4.3 03:17:28 10° NW 03:24:38 41° WSW 03:32:53 10° S
Cosmos 2369 4.3 03:19:36 10° SW 03:25:09 51° WNW 03:25:34 50° NW
Cosmos 2263 Rocket 3.0 03:28:13 10° NW 03:33:38 47° WSW 03:34:12 45° SW
COSMOS 2455 3.8 03:35:39 10° SSW 03:39:32 42° SW 03:39:32 42° SW
Centaur D AC-28 4.3 11:46:16 45° SSW 11:46:16 45° SSW 11:51:23 10° SE
USA 59 Rocket 2.7 11:57:06 18° E 11:57:06 18° E 11:59:13 10° ESE
